Hourly Data Report for August 19, 2015

All times are specified in Local Standard Time (LST). Add 1 hour to adjust for Daylight Saving Time where and when it is observed.

TORONTO INTL A
ONTARIO

43°40'36.000" N
79°37'50.000" W
173.40 m
6158731
71624
YYZ

Download Data

Hourly Data (August 2015)
Hourly Data Report for August 19, 2015
Temp Definition
°C
Dew Point Temp Definition
°C
Rel Hum Definition
%
Wind Dir Definition
10's deg

Wind Spd Definition
km/h
Visibility Definition
km
Stn Press Definition
kPa
Hmdx Definition


Wind Chill Definition


Weather Definition


TIME
00:00 Legend Double Dagger 21.0 19.7 92 2 3 24.1 99.17 28   LegendNANA
01:00 Legend Double Dagger 21.0 19.8 93 6 4 24.1 99.17 28   Clear
02:00 Legend Double Dagger 20.7 19.7 94 4 4 16.1 99.12 28   LegendNANA
03:00 Legend Double Dagger 21.1 20.1 94 9 5 12.9 99.13 29   LegendNANA
04:00 Legend Double Dagger 21.2 20.4 95 6 7 3.2 99.11 29   Fog
05:00 Legend Double Dagger 21.1 20.6 97 10 6 2.4 99.10 29   Fog
06:00 Legend Double Dagger 21.5 20.3 93 36 2 6.4 99.14 29   Fog
07:00 Legend Double Dagger 22.3 20.4 89 20 4 6.4 99.18 30   Fog
08:00 Legend Double Dagger 22.8 20.8 88 15 9 6.4 99.18 31   Fog
09:00 Legend Double Dagger 23.2 20.6 85 17 9 12.9 99.18 31   LegendNANA
10:00 Legend Double Dagger 25.5 21.3 77 20 12 19.3 99.15 34   Mostly Cloudy
11:00 Legend Double Dagger 26.5 21.2 72 15 20 24.1 99.15 35   LegendNANA
12:00 Legend Double Dagger 27.4 20.6 66 17 16 24.1 99.12 35   LegendNANA
13:00 Legend Double Dagger 27.4 20.9 67 15 17 24.1 99.09 36   Mostly Cloudy
14:00 Legend Double Dagger 28.0 20.5 63 15 20 24.1 99.03 36   LegendNANA
15:00 Legend Double Dagger 28.5 19.9 59 14 21 24.1 98.97 36   LegendNANA
16:00 Legend Double Dagger 27.8 20.0 62 15 17 24.1 98.98 35   Mostly Cloudy
17:00 Legend Double Dagger 27.4 19.9 63 14 16 24.1 98.88 35   LegendNANA
18:00 Legend Double Dagger 26.0 19.8 68 12 15 24.1 98.88 33   LegendNANA
19:00 Legend Double Dagger 24.8 19.7 73 10 18 24.1 98.91 32   Mostly Cloudy
20:00 Legend Double Dagger 24.3 20.1 77 10 9 24.1 98.92 32   LegendNANA
21:00 Legend Double Dagger 25.3 20.2 73 12 12 24.1 98.88 33   LegendNANA
22:00 Legend Double Dagger 25.0 21.0 78 12 13 24.1 98.80 33   Cloudy
23:00 Legend Double Dagger 22.8 21.5 92 15 11 24.1 98.83 32   Rain Showers

Notes on Data Quality.

Legend

  • E = Estimated
  • M = Missing
  • NA = Not Available
  • ‡ = Partner data that is not subject to review by the National Climate Archives
Date modified: